| time (UTC) | temp F | wind direction | speed MPH | gust MPH | rain 1hr in | rain 24hr in | rain mn in | humidity % | barometer mb |
| 20260508004031 | 95 | 0 | 0.0 | 1.0 | 0.00 | 0.00 | 0.00 | 5 | 1008.7 |
| 20260508003530 | 96 | 0 | 0.0 | 1.0 | 0.00 | 0.00 | 0.00 | 5 | 1008.7 |
| 20260508003043 | 96 | 0 | 0.0 | 1.0 | 0.00 | 0.00 | 0.00 | 5 | 1008.7 |
| 20260508002530 | 96 | 0 | 0.0 | 1.0 | 0.00 | 0.00 | 0.00 | 5 | 1008.8 |
| 20260508002030 | 96 | 0 | 0.0 | 7.0 | 0.00 | 0.00 | 0.00 | 5 | 1008.7 |
| 20260508001550 | 96 | 0 | 0.0 | 7.0 | 0.00 | 0.00 | 0.00 | 5 | 1008.8 |
| 20260508001031 | 96 | 183 | 0.0 | 1.0 | 0.00 | 0.00 | 0.00 | 5 | 1008.6 |
| 20260508000531 | 96 | 0 | 0.0 | 0.0 | 0.00 | 0.00 | 0.00 | 5 | 1008.7 |
| 20260508000041 | 96 | 0 | 0.0 | 1.0 | 0.00 | 0.00 | 0.00 | 5 | 1008.8 |
| 20260507235531 | 96 | 0 | 0.0 | 2.0 | 0.00 | 0.00 | 0.00 | 5 | 1008.8 |
| 20260507235031 | 96 | 0 | 0.0 | 2.0 | 0.00 | 0.00 | 0.00 | 5 | 1008.8 |
| 20260507234545 | 96 | 164 | 0.0 | 1.0 | 0.00 | 0.00 | 0.00 | 5 | 1008.8 |
| 20260507234030 | 96 | 0 | 0.0 | 0.0 | 0.00 | 0.00 | 0.00 | 5 | 1008.8 |
| 20260507233531 | 96 | 0 | 0.0 | 1.0 | 0.00 | 0.00 | 0.00 | 5 | 1008.9 |
| 20260507233046 | 96 | 0 | 0.0 | 4.0 | 0.00 | 0.00 | 0.00 | 5 | 1008.9 |
| 20260507232529 | 95 | 0 | 0.0 | 4.0 | 0.00 | 0.00 | 0.00 | 5 | 1008.9 |
| 20260507232032 | 95 | 107 | 0.0 | 4.0 | 0.00 | 0.00 | 0.00 | 5 | 1008.9 |
| 20260507231546 | 95 | 0 | 0.0 | 4.0 | 0.00 | 0.00 | 0.00 | 5 | 1008.8 |
| 20260507231030 | 95 | 0 | 0.0 | 6.0 | 0.00 | 0.00 | 0.00 | 5 | 1008.8 |
| 20260507230532 | 94 | 0 | 0.0 | 8.0 | 0.00 | 0.00 | 0.00 | 5 | 1008.9 |
| 20260507230046 | 95 | 123 | 1.0 | 8.0 | 0.00 | 0.00 | 0.00 | 5 | 1009.0 |
| 20260507225531 | 95 | 0 | 1.0 | 6.0 | 0.00 | 0.00 | 0.00 | 5 | 1009.0 |
| 20260507225031 | 95 | 0 | 0.0 | 6.0 | 0.00 | 0.00 | 0.00 | 5 | 1009.0 |
| 20260507224542 | 95 | 107 | 1.0 | 8.0 | 0.00 | 0.00 | 0.00 | 5 | 1009.0 |
| 20260507224031 | 95 | 0 | 1.0 | 8.0 | 0.00 | 0.00 | 0.00 | 5 | 1009.1 |
| 20260507223532 | 96 | 110 | 1.0 | 6.0 | 0.00 | 0.00 | 0.00 | 5 | 1009.2 |
| 20260507223046 | 97 | 123 | 0.0 | 4.0 | 0.00 | 0.00 | 0.00 | 5 | 1009.1 |
| 20260507222529 | 97 | 0 | 0.0 | 3.0 | 0.00 | 0.00 | 0.00 | 5 | 1009.2 |
| 20260507222034 | 96 | 0 | 0.0 | 6.0 | 0.00 | 0.00 | 0.00 | 5 | 1009.2 |
| 20260507221545 | 96 | 0 | 0.0 | 6.0 | 0.00 | 0.00 | 0.00 | 5 | 1009.2 |
| 20260507221033 | 96 | 101 | 0.0 | 3.0 | 0.00 | 0.00 | 0.00 | 5 | 1009.3 |
| 20260507220529 | 96 | 0 | 0.0 | 2.0 | 0.00 | 0.00 | 0.00 | 5 | 1009.3 |
| 20260507220050 | 96 | 0 | 0.0 | 2.0 | 0.00 | 0.00 | 0.00 | 5 | 1009.5 |
| 20260507215531 | 95 | 0 | 0.0 | 4.0 | 0.00 | 0.00 | 0.00 | 5 | 1009.6 |
| 20260507215032 | 95 | 0 | 0.0 | 4.0 | 0.00 | 0.00 | 0.00 | 4 | 1009.6 |
| 20260507214548 | 95 | 0 | 0.0 | 4.0 | 0.00 | 0.00 | 0.00 | 4 | 1009.7 |
| 20260507214034 | 95 | 0 | 0.0 | 1.0 | 0.00 | 0.00 | 0.00 | 4 | 1009.8 |
| 20260507213534 | 95 | 0 | 0.0 | 6.0 | 0.00 | 0.00 | 0.00 | 5 | 1009.9 |
| 20260507213043 | 95 | 0 | 0.0 | 6.0 | 0.00 | 0.00 | 0.00 | 5 | 1010.0 |
| 20260507212531 | 96 | 92 | 0.0 | 1.0 | 0.00 | 0.00 | 0.00 | 4 | 1009.9 |
| 20260507212030 | 96 | 0 | 0.0 | 7.0 | 0.00 | 0.00 | 0.00 | 4 | 1010.1 |
| 20260507211551 | 96 | 0 | 0.0 | 7.0 | 0.00 | 0.00 | 0.00 | 4 | 1010.0 |
| 20260507211032 | 96 | 0 | 0.0 | 7.0 | 0.00 | 0.00 | 0.00 | 4 | 1010.0 |
| 20260507210529 | 95 | 0 | 0.0 | 2.0 | 0.00 | 0.00 | 0.00 | 5 | 1010.1 |
| 20260507210046 | 95 | 0 | 0.0 | 2.0 | 0.00 | 0.00 | 0.00 | 4 | 1010.1 |
| 20260507205530 | 95 | 0 | 0.0 | 2.0 | 0.00 | 0.00 | 0.00 | 6 | 1010.3 |
| 20260507205030 | 95 | 0 | 0.0 | 2.0 | 0.00 | 0.00 | 0.00 | 6 | 1010.4 |
| 20260507204541 | 95 | 0 | 0.0 | 2.0 | 0.00 | 0.00 | 0.00 | 6 | 1010.6 |
| 20260507204029 | 95 | 0 | 0.0 | 2.0 | 0.00 | 0.00 | 0.00 | 5 | 1010.7 |
| 20260507203530 | 95 | 0 | 0.0 | 2.0 | 0.00 | 0.00 | 0.00 | 5 | 1010.8 |
| 20260507203043 | 95 | 0 | 0.0 | 0.0 | 0.00 | 0.00 | 0.00 | 4 | 1010.8 |
| 20260507202530 | 95 | 0 | 0.0 | 0.0 | 0.00 | 0.00 | 0.00 | 5 | 1010.9 |
| 20260507202030 | 94 | 0 | 0.0 | 0.0 | 0.00 | 0.00 | 0.00 | 6 | 1011.0 |
| 20260507201547 | 94 | 0 | 0.0 | 3.0 | 0.00 | 0.00 | 0.00 | 5 | 1011.0 |
| 20260507201031 | 94 | 0 | 0.0 | 3.0 | 0.00 | 0.00 | 0.00 | 6 | 1011.1 |
| 20260507200530 | 93 | 0 | 0.0 | 0.0 | 0.00 | 0.00 | 0.00 | 6 | 1011.1 |
| 20260507200043 | 93 | 0 | 0.0 | 1.0 | 0.00 | 0.00 | 0.00 | 5 | 1011.3 |
| 20260507195530 | 93 | 0 | 0.0 | 2.0 | 0.00 | 0.00 | 0.00 | 6 | 1011.4 |
| 20260507195031 | 93 | 0 | 0.0 | 2.0 | 0.00 | 0.00 | 0.00 | 6 | 1011.5 |
| 20260507194546 | 93 | 0 | 0.0 | 1.0 | 0.00 | 0.00 | 0.00 | 6 | 1011.6 |
| 20260507194030 | 92 | 0 | 0.0 | 1.0 | 0.00 | 0.00 | 0.00 | 6 | 1011.7 |
| 20260507193529 | 92 | 0 | 0.0 | 6.0 | 0.00 | 0.00 | 0.00 | 6 | 1011.8 |
| 20260507193043 | 92 | 0 | 0.0 | 6.0 | 0.00 | 0.00 | 0.00 | 6 | 1011.9 |
| 20260507192528 | 92 | 0 | 0.0 | 6.0 | 0.00 | 0.00 | 0.00 | 5 | 1011.9 |
| 20260507192030 | 92 | 0 | 0.0 | 2.0 | 0.00 | 0.00 | 0.00 | 5 | 1012.0 |
| 20260507191542 | 92 | 0 | 0.0 | 6.0 | 0.00 | 0.00 | 0.00 | 6 | 1012.2 |
| 20260507191032 | 92 | 0 | 0.0 | 6.0 | 0.00 | 0.00 | 0.00 | 6 | 1012.2 |
| 20260507190530 | 92 | 0 | 0.0 | 0.0 | 0.00 | 0.00 | 0.00 | 6 | 1012.2 |
| 20260507190040 | 92 | 0 | 0.0 | 0.0 | 0.00 | 0.00 | 0.00 | 6 | 1012.3 |
| 20260507185531 | 92 | 0 | 0.0 | 0.0 | 0.00 | 0.00 | 0.00 | 6 | 1012.3 |
| 20260507185031 | 91 | 0 | 0.0 | 0.0 | 0.00 | 0.00 | 0.00 | 6 | 1012.4 |
| 20260507184546 | 91 | 0 | 0.0 | 0.0 | 0.00 | 0.00 | 0.00 | 7 | 1012.5 |
| 20260507184030 | 90 | 0 | 0.0 | 0.0 | 0.00 | 0.00 | 0.00 | 7 | 1012.5 |
| 20260507183532 | 90 | 0 | 0.0 | 0.0 | 0.00 | 0.00 | 0.00 | 7 | 1012.6 |
| 20260507183049 | 90 | 0 | 0.0 | 0.0 | 0.00 | 0.00 | 0.00 | 7 | 1012.5 |
| 20260507182530 | 90 | 0 | 0.0 | 0.0 | 0.00 | 0.00 | 0.00 | 8 | 1012.6 |
| 20260507182031 | 90 | 0 | 0.0 | 0.0 | 0.00 | 0.00 | 0.00 | 8 | 1012.6 |
| 20260507181544 | 89 | 0 | 0.0 | 0.0 | 0.00 | 0.00 | 0.00 | 8 | 1012.8 |
| 20260507181029 | 89 | 0 | 0.0 | 0.0 | 0.00 | 0.00 | 0.00 | 9 | 1012.7 |
| 20260507180529 | 89 | 0 | 0.0 | 0.0 | 0.00 | 0.00 | 0.00 | 9 | 1012.8 |
| 20260507180052 | 88 | 0 | 0.0 | 0.0 | 0.00 | 0.00 | 0.00 | 7 | 1012.8 |
| 20260507175529 | 88 | 0 | 0.0 | 0.0 | 0.00 | 0.00 | 0.00 | 6 | 1012.8 |
| 20260507175030 | 87 | 0 | 0.0 | 0.0 | 0.00 | 0.00 | 0.00 | 7 | 1012.8 |
| 20260507174541 | 86 | 0 | 0.0 | 0.0 | 0.00 | 0.00 | 0.00 | 9 | 1012.9 |
| 20260507174032 | 86 | 0 | 0.0 | 0.0 | 0.00 | 0.00 | 0.00 | 10 | 1013.0 |
| 20260507173531 | 85 | 0 | 0.0 | 0.0 | 0.00 | 0.00 | 0.00 | 10 | 1013.1 |
| 20260507173049 | 84 | 0 | 0.0 | 0.0 | 0.00 | 0.00 | 0.00 | 11 | 1013.3 |
| 20260507172531 | 84 | 0 | 0.0 | 0.0 | 0.00 | 0.00 | 0.00 | 11 | 1013.4 |
| 20260507172030 | 83 | 0 | 0.0 | 0.0 | 0.00 | 0.00 | 0.00 | 12 | 1013.4 |
| 20260507171600 | 83 | 0 | 0.0 | 0.0 | 0.00 | 0.00 | 0.00 | 13 | 1013.5 |
| 20260507171031 | 82 | 0 | 0.0 | 0.0 | 0.00 | 0.00 | 0.00 | 13 | 1013.5 |
| 20260507170531 | 82 | 0 | 0.0 | 0.0 | 0.00 | 0.00 | 0.00 | 13 | 1013.6 |
| 20260507170045 | 81 | 0 | 0.0 | 0.0 | 0.00 | 0.00 | 0.00 | 13 | 1013.6 |
| 20260507165530 | 81 | 0 | 0.0 | 0.0 | 0.00 | 0.00 | 0.00 | 14 | 1013.6 |
| 20260507165030 | 81 | 0 | 0.0 | 0.0 | 0.00 | 0.00 | 0.00 | 15 | 1013.6 |
| 20260507164548 | 81 | 0 | 0.0 | 0.0 | 0.00 | 0.00 | 0.00 | 14 | 1013.7 |
| 20260507164028 | 80 | 0 | 0.0 | 0.0 | 0.00 | 0.00 | 0.00 | 14 | 1013.6 |
| 20260507163531 | 80 | 0 | 0.0 | 0.0 | 0.00 | 0.00 | 0.00 | 14 | 1013.6 |
| 20260507163049 | 80 | 0 | 0.0 | 0.0 | 0.00 | 0.00 | 0.00 | 14 | 1013.6 |
| 20260507162531 | 79 | 0 | 0.0 | 0.0 | 0.00 | 0.00 | 0.00 | 15 | 1013.6 |
| 20260507162032 | 79 | 0 | 0.0 | 0.0 | 0.00 | 0.00 | 0.00 | 15 | 1013.7 |
| 20260507161609 | 79 | 0 | 0.0 | 0.0 | 0.00 | 0.00 | 0.00 | 15 | 1013.8 |
| 20260507161030 | 78 | 0 | 0.0 | 0.0 | 0.00 | 0.00 | 0.00 | 15 | 1013.7 |
| 20260507160530 | 78 | 0 | 0.0 | 0.0 | 0.00 | 0.00 | 0.00 | 15 | 1013.8 |
| 20260507160053 | 78 | 0 | 0.0 | 0.0 | 0.00 | 0.00 | 0.00 | 15 | 1013.9 |
| 20260507155530 | 78 | 0 | 0.0 | 0.0 | 0.00 | 0.00 | 0.00 | 15 | 1013.8 |
| 20260507155030 | 78 | 0 | 0.0 | 0.0 | 0.00 | 0.00 | 0.00 | 15 | 1013.8 |
| 20260507154545 | 78 | 0 | 0.0 | 0.0 | 0.00 | 0.00 | 0.00 | 17 | 1013.9 |
| 20260507154029 | 77 | 0 | 0.0 | 2.0 | 0.00 | 0.00 | 0.00 | 16 | 1013.9 |
| 20260507153530 | 77 | 0 | 0.0 | 2.0 | 0.00 | 0.00 | 0.00 | 17 | 1014.0 |
| 20260507153044 | 77 | 0 | 0.0 | 1.0 | 0.00 | 0.00 | 0.00 | 17 | 1013.9 |
| 20260507152530 | 76 | 0 | 0.0 | 1.0 | 0.00 | 0.00 | 0.00 | 18 | 1013.8 |
| 20260507152030 | 76 | 0 | 0.0 | 1.0 | 0.00 | 0.00 | 0.00 | 17 | 1013.9 |
| 20260507151547 | 76 | 0 | 0.0 | 2.0 | 0.00 | 0.00 | 0.00 | 17 | 1013.7 |
| 20260507151030 | 75 | 0 | 0.0 | 3.0 | 0.00 | 0.00 | 0.00 | 17 | 1013.7 |
| 20260507150531 | 75 | 0 | 0.0 | 3.0 | 0.00 | 0.00 | 0.00 | 18 | 1013.7 |
| 20260507150043 | 75 | 0 | 0.0 | 3.0 | 0.00 | 0.00 | 0.00 | 19 | 1013.7 |
| 20260507145531 | 74 | 0 | 0.0 | 0.0 | 0.00 | 0.00 | 0.00 | 19 | 1013.7 |
| 20260507145032 | 74 | 0 | 0.0 | 0.0 | 0.00 | 0.00 | 0.00 | 19 | 1013.6 |
| 20260507144545 | 73 | 0 | 0.0 | 0.0 | 0.00 | 0.00 | 0.00 | 20 | 1013.7 |
| 20260507144030 | 73 | 0 | 0.0 | 0.0 | 0.00 | 0.00 | 0.00 | 21 | 1013.8 |
| 20260507143530 | 73 | 0 | 0.0 | 0.0 | 0.00 | 0.00 | 0.00 | 21 | 1013.7 |
| 20260507143048 | 73 | 0 | 0.0 | 0.0 | 0.00 | 0.00 | 0.00 | 20 | 1013.8 |
| 20260507142531 | 73 | 0 | 0.0 | 0.0 | 0.00 | 0.00 | 0.00 | 21 | 1013.8 |
| 20260507142030 | 73 | 0 | 0.0 | 0.0 | 0.00 | 0.00 | 0.00 | 20 | 1013.7 |
| 20260507141545 | 73 | 0 | 0.0 | 0.0 | 0.00 | 0.00 | 0.00 | 21 | 1013.8 |
| 20260507141031 | 72 | 0 | 0.0 | 0.0 | 0.00 | 0.00 | 0.00 | 20 | 1013.7 |
| 20260507140531 | 71 | 0 | 0.0 | 0.0 | 0.00 | 0.00 | 0.00 | 20 | 1013.7 |
| 20260507140043 | 70 | 0 | 0.0 | 0.0 | 0.00 | 0.00 | 0.00 | 21 | 1013.7 |
| 20260507135531 | 69 | 0 | 0.0 | 0.0 | 0.00 | 0.00 | 0.00 | 22 | 1013.5 |
| 20260507135031 | 69 | 0 | 0.0 | 0.0 | 0.00 | 0.00 | 0.00 | 22 | 1013.5 |
| 20260507134545 | 68 | 0 | 0.0 | 0.0 | 0.00 | 0.00 | 0.00 | 23 | 1013.5 |
| 20260507134029 | 67 | 0 | 0.0 | 0.0 | 0.00 | 0.00 | 0.00 | 23 | 1013.5 |
| 20260507133529 | 66 | 0 | 0.0 | 0.0 | 0.00 | 0.00 | 0.00 | 25 | 1013.4 |
| 20260507133045 | 66 | 0 | 0.0 | 0.0 | 0.00 | 0.00 | 0.00 | 25 | 1013.3 |
| 20260507132529 | 66 | 0 | 0.0 | 0.0 | 0.00 | 0.00 | 0.00 | 25 | 1013.3 |
| 20260507132033 | 66 | 0 | 0.0 | 0.0 | 0.00 | 0.00 | 0.00 | 26 | 1013.4 |
| 20260507131544 | 66 | 0 | 0.0 | 0.0 | 0.00 | 0.00 | 0.00 | 26 | 1013.4 |
| 20260507131030 | 66 | 0 | 0.0 | 0.0 | 0.00 | 0.00 | 0.00 | 25 | 1013.4 |
| 20260507130531 | 66 | 0 | 0.0 | 0.0 | 0.00 | 0.00 | 0.00 | 25 | 1013.4 |
| 20260507130051 | 66 | 0 | 0.0 | 0.0 | 0.00 | 0.00 | 0.00 | 25 | 1013.3 |
| 20260507125530 | 66 | 0 | 0.0 | 0.0 | 0.00 | 0.00 | 0.00 | 24 | 1013.4 |
| 20260507125029 | 66 | 0 | 0.0 | 0.0 | 0.00 | 0.00 | 0.00 | 24 | 1013.3 |
| 20260507124558 | 66 | 0 | 0.0 | 0.0 | 0.00 | 0.00 | 0.00 | 24 | 1013.3 |
| 20260507124034 | 66 | 0 | 0.0 | 0.0 | 0.00 | 0.00 | 0.00 | 24 | 1013.2 |
| 20260507123533 | 66 | 0 | 0.0 | 0.0 | 0.00 | 0.00 | 0.00 | 24 | 1013.2 |
| 20260507123045 | 66 | 0 | 0.0 | 0.0 | 0.00 | 0.00 | 0.00 | 24 | 1013.3 |
| 20260507122532 | 66 | 0 | 0.0 | 0.0 | 0.00 | 0.00 | 0.00 | 24 | 1013.3 |
| 20260507122032 | 66 | 0 | 0.0 | 0.0 | 0.00 | 0.00 | 0.00 | 24 | 1013.3 |
| 20260507121544 | 66 | 0 | 0.0 | 0.0 | 0.00 | 0.00 | 0.00 | 24 | 1013.3 |
| 20260507121031 | 66 | 0 | 0.0 | 0.0 | 0.00 | 0.00 | 0.00 | 23 | 1013.3 |
| 20260507120532 | 66 | 0 | 0.0 | 0.0 | 0.00 | 0.00 | 0.00 | 23 | 1013.2 |
| 20260507120043 | 66 | 0 | 0.0 | 0.0 | 0.00 | 0.00 | 0.00 | 23 | 1013.2 |
| 20260507115531 | 66 | 0 | 0.0 | 0.0 | 0.00 | 0.00 | 0.00 | 23 | 1013.3 |
| 20260507115033 | 66 | 0 | 0.0 | 0.0 | 0.00 | 0.00 | 0.00 | 23 | 1013.3 |
| 20260507114558 | 66 | 0 | 0.0 | 0.0 | 0.00 | 0.00 | 0.00 | 23 | 1013.3 |
| 20260507114034 | 66 | 0 | 0.0 | 0.0 | 0.00 | 0.00 | 0.00 | 23 | 1013.4 |
| 20260507113532 | 66 | 0 | 0.0 | 0.0 | 0.00 | 0.00 | 0.00 | 22 | 1013.4 |
| 20260507113044 | 66 | 0 | 0.0 | 0.0 | 0.00 | 0.00 | 0.00 | 22 | 1013.4 |
| 20260507112531 | 66 | 0 | 0.0 | 0.0 | 0.00 | 0.00 | 0.00 | 22 | 1013.4 |
| 20260507112032 | 66 | 0 | 0.0 | 0.0 | 0.00 | 0.00 | 0.00 | 22 | 1013.6 |
| 20260507111545 | 66 | 0 | 0.0 | 0.0 | 0.00 | 0.00 | 0.00 | 22 | 1013.5 |
| 20260507111031 | 66 | 0 | 0.0 | 0.0 | 0.00 | 0.00 | 0.00 | 22 | 1013.5 |
| 20260507110532 | 66 | 0 | 0.0 | 0.0 | 0.00 | 0.00 | 0.00 | 21 | 1013.4 |
| 20260507110046 | 66 | 0 | 0.0 | 0.0 | 0.00 | 0.00 | 0.00 | 22 | 1013.5 |
| 20260507105533 | 66 | 0 | 0.0 | 0.0 | 0.00 | 0.00 | 0.00 | 21 | 1013.6 |
| 20260507105030 | 66 | 0 | 0.0 | 0.0 | 0.00 | 0.00 | 0.00 | 22 | 1013.6 |
| 20260507104551 | 65 | 0 | 0.0 | 1.0 | 0.00 | 0.00 | 0.00 | 22 | 1013.5 |
| 20260507104032 | 65 | 0 | 0.0 | 1.0 | 0.00 | 0.00 | 0.00 | 23 | 1013.6 |
| 20260507103532 | 65 | 0 | 0.0 | 1.0 | 0.00 | 0.00 | 0.00 | 23 | 1013.7 |
| 20260507103040 | 64 | 0 | 0.0 | 0.0 | 0.00 | 0.00 | 0.00 | 24 | 1013.6 |
| 20260507102531 | 64 | 0 | 0.0 | 0.0 | 0.00 | 0.00 | 0.00 | 23 | 1013.6 |
| 20260507102031 | 65 | 0 | 0.0 | 0.0 | 0.00 | 0.00 | 0.00 | 20 | 1013.7 |
| 20260507101548 | 65 | 0 | 0.0 | 0.0 | 0.00 | 0.00 | 0.00 | 22 | 1013.6 |
| 20260507101035 | 65 | 0 | 0.0 | 0.0 | 0.00 | 0.00 | 0.00 | 23 | 1013.7 |
| 20260507100532 | 65 | 0 | 0.0 | 0.0 | 0.00 | 0.00 | 0.00 | 24 | 1013.6 |
| 20260507100048 | 66 | 0 | 0.0 | 0.0 | 0.00 | 0.00 | 0.00 | 23 | 1013.6 |
| 20260507095533 | 66 | 0 | 0.0 | 0.0 | 0.00 | 0.00 | 0.00 | 23 | 1013.7 |
| 20260507095032 | 66 | 0 | 0.0 | 0.0 | 0.00 | 0.00 | 0.00 | 23 | 1013.7 |
| 20260507094543 | 66 | 0 | 0.0 | 0.0 | 0.00 | 0.00 | 0.00 | 22 | 1013.8 |
| 20260507094031 | 66 | 0 | 0.0 | 0.0 | 0.00 | 0.00 | 0.00 | 22 | 1013.8 |
| 20260507093529 | 66 | 0 | 0.0 | 0.0 | 0.00 | 0.00 | 0.00 | 22 | 1013.8 |
| 20260507093045 | 67 | 0 | 0.0 | 0.0 | 0.00 | 0.00 | 0.00 | 22 | 1013.7 |
| 20260507092530 | 67 | 0 | 0.0 | 0.0 | 0.00 | 0.00 | 0.00 | 22 | 1013.7 |
| 20260507092031 | 67 | 0 | 0.0 | 0.0 | 0.00 | 0.00 | 0.00 | 21 | 1013.7 |
| 20260507091543 | 67 | 0 | 0.0 | 0.0 | 0.00 | 0.00 | 0.00 | 20 | 1013.8 |
| 20260507091028 | 68 | 0 | 0.0 | 0.0 | 0.00 | 0.00 | 0.00 | 20 | 1013.8 |
| 20260507090528 | 68 | 0 | 0.0 | 0.0 | 0.00 | 0.00 | 0.00 | 20 | 1013.8 |
| 20260507090044 | 68 | 0 | 0.0 | 0.0 | 0.00 | 0.00 | 0.00 | 20 | 1014.0 |
| 20260507085528 | 68 | 0 | 0.0 | 0.0 | 0.00 | 0.00 | 0.00 | 20 | 1014.0 |
| 20260507085030 | 68 | 0 | 0.0 | 0.0 | 0.00 | 0.00 | 0.00 | 20 | 1013.9 |
| 20260507084544 | 69 | 0 | 0.0 | 0.0 | 0.00 | 0.00 | 0.00 | 19 | 1014.0 |
| 20260507084031 | 69 | 0 | 0.0 | 0.0 | 0.00 | 0.00 | 0.00 | 19 | 1014.0 |
| 20260507083532 | 69 | 0 | 0.0 | 0.0 | 0.00 | 0.00 | 0.00 | 19 | 1013.9 |
| 20260507083044 | 69 | 0 | 0.0 | 0.0 | 0.00 | 0.00 | 0.00 | 18 | 1014.0 |
| 20260507082530 | 69 | 0 | 0.0 | 0.0 | 0.00 | 0.00 | 0.00 | 18 | 1014.0 |
| 20260507082030 | 69 | 0 | 0.0 | 0.0 | 0.00 | 0.00 | 0.00 | 18 | 1014.0 |
| 20260507081544 | 69 | 0 | 0.0 | 0.0 | 0.00 | 0.00 | 0.00 | 18 | 1014.0 |
| 20260507081029 | 69 | 0 | 0.0 | 0.0 | 0.00 | 0.00 | 0.00 | 18 | 1014.0 |
| 20260507080531 | 69 | 0 | 0.0 | 0.0 | 0.00 | 0.00 | 0.00 | 17 | 1014.1 |
| 20260507080042 | 69 | 0 | 0.0 | 0.0 | 0.00 | 0.00 | 0.00 | 17 | 1014.2 |
| 20260507075530 | 70 | 0 | 0.0 | 0.0 | 0.00 | 0.00 | 0.00 | 17 | 1014.2 |
| 20260507075028 | 70 | 0 | 0.0 | 0.0 | 0.00 | 0.00 | 0.00 | 17 | 1014.3 |
| 20260507074545 | 70 | 0 | 0.0 | 0.0 | 0.00 | 0.00 | 0.00 | 17 | 1014.2 |
| 20260507074029 | 70 | 0 | 0.0 | 0.0 | 0.00 | 0.00 | 0.00 | 17 | 1014.3 |
| 20260507073527 | 70 | 0 | 0.0 | 0.0 | 0.00 | 0.00 | 0.00 | 17 | 1014.2 |
| 20260507073048 | 71 | 0 | 0.0 | 0.0 | 0.00 | 0.00 | 0.00 | 17 | 1014.3 |
| 20260507072527 | 71 | 0 | 0.0 | 0.0 | 0.00 | 0.00 | 0.00 | 17 | 1014.2 |
| 20260507072031 | 71 | 0 | 0.0 | 0.0 | 0.00 | 0.00 | 0.00 | 17 | 1014.3 |
| 20260507071550 | 71 | 0 | 0.0 | 0.0 | 0.00 | 0.00 | 0.00 | 17 | 1014.3 |
| 20260507071029 | 71 | 0 | 0.0 | 0.0 | 0.00 | 0.00 | 0.00 | 17 | 1014.3 |
| 20260507070531 | 71 | 0 | 0.0 | 0.0 | 0.00 | 0.00 | 0.00 | 17 | 1014.3 |
| 20260507070059 | 71 | 0 | 0.0 | 0.0 | 0.00 | 0.00 | 0.00 | 17 | 1014.4 |
| 20260507065529 | 71 | 0 | 0.0 | 0.0 | 0.00 | 0.00 | 0.00 | 17 | 1014.4 |
| 20260507065030 | 71 | 0 | 0.0 | 0.0 | 0.00 | 0.00 | 0.00 | 17 | 1014.4 |
| 20260507064543 | 72 | 0 | 0.0 | 0.0 | 0.00 | 0.00 | 0.00 | 17 | 1014.4 |
| 20260507064030 | 72 | 0 | 0.0 | 0.0 | 0.00 | 0.00 | 0.00 | 17 | 1014.4 |
| 20260507063529 | 72 | 0 | 0.0 | 0.0 | 0.00 | 0.00 | 0.00 | 17 | 1014.4 |
| 20260507063053 | 72 | 0 | 0.0 | 0.0 | 0.00 | 0.00 | 0.00 | 17 | 1014.4 |
| 20260507062530 | 72 | 0 | 0.0 | 0.0 | 0.00 | 0.00 | 0.00 | 17 | 1014.3 |
| 20260507062030 | 72 | 0 | 0.0 | 0.0 | 0.00 | 0.00 | 0.00 | 18 | 1014.3 |
| 20260507061546 | 72 | 0 | 0.0 | 0.0 | 0.00 | 0.00 | 0.00 | 17 | 1014.3 |
| 20260507061026 | 72 | 0 | 0.0 | 0.0 | 0.00 | 0.00 | 0.00 | 17 | 1014.4 |
| 20260507060527 | 72 | 0 | 0.0 | 0.0 | 0.00 | 0.00 | 0.00 | 18 | 1014.3 |
| 20260507060048 | 72 | 0 | 0.0 | 0.0 | 0.00 | 0.00 | 0.00 | 17 | 1014.3 |
| 20260507055530 | 72 | 0 | 0.0 | 0.0 | 0.00 | 0.00 | 0.00 | 17 | 1014.3 |
| 20260507055027 | 73 | 0 | 0.0 | 0.0 | 0.00 | 0.00 | 0.00 | 17 | 1014.4 |
| 20260507054546 | 73 | 0 | 0.0 | 0.0 | 0.00 | 0.00 | 0.00 | 17 | 1014.3 |
| 20260507054027 | 73 | 0 | 0.0 | 0.0 | 0.00 | 0.00 | 0.00 | 17 | 1014.3 |
| 20260507053531 | 73 | 0 | 0.0 | 0.0 | 0.00 | 0.00 | 0.00 | 17 | 1014.3 |
| 20260507053042 | 73 | 0 | 0.0 | 0.0 | 0.00 | 0.00 | 0.00 | 17 | 1014.4 |
| 20260507052530 | 73 | 0 | 0.0 | 0.0 | 0.00 | 0.00 | 0.00 | 17 | 1014.2 |
| 20260507052032 | 74 | 0 | 0.0 | 0.0 | 0.00 | 0.00 | 0.00 | 17 | 1014.3 |
| 20260507051545 | 74 | 0 | 0.0 | 0.0 | 0.00 | 0.00 | 0.00 | 17 | 1014.2 |
| 20260507051031 | 74 | 0 | 0.0 | 0.0 | 0.00 | 0.00 | 0.00 | 17 | 1014.1 |
| 20260507050530 | 74 | 0 | 0.0 | 0.0 | 0.00 | 0.00 | 0.00 | 17 | 1014.1 |
| 20260507050042 | 74 | 0 | 0.0 | 0.0 | 0.00 | 0.00 | 0.00 | 17 | 1014.1 |
| 20260507045530 | 75 | 0 | 0.0 | 0.0 | 0.00 | 0.00 | 0.00 | 16 | 1014.0 |
| 20260507045031 | 75 | 0 | 0.0 | 0.0 | 0.00 | 0.00 | 0.00 | 16 | 1014.0 |
| 20260507044543 | 75 | 0 | 0.0 | 0.0 | 0.00 | 0.00 | 0.00 | 16 | 1014.0 |
| 20260507044029 | 76 | 0 | 0.0 | 0.0 | 0.00 | 0.00 | 0.00 | 16 | 1014.1 |
| 20260507043528 | 76 | 0 | 0.0 | 0.0 | 0.00 | 0.00 | 0.00 | 16 | 1014.0 |
| 20260507043047 | 76 | 0 | 0.0 | 0.0 | 0.00 | 0.00 | 0.00 | 16 | 1014.0 |
| 20260507042529 | 76 | 0 | 0.0 | 0.0 | 0.00 | 0.00 | 0.00 | 16 | 1013.9 |
| 20260507042029 | 77 | 0 | 0.0 | 0.0 | 0.00 | 0.00 | 0.00 | 16 | 1013.9 |
| 20260507041545 | 77 | 0 | 0.0 | 0.0 | 0.00 | 0.00 | 0.00 | 16 | 1013.9 |
| 20260507041030 | 77 | 0 | 0.0 | 0.0 | 0.00 | 0.00 | 0.00 | 16 | 1013.9 |
| 20260507040530 | 77 | 0 | 0.0 | 0.0 | 0.00 | 0.00 | 0.00 | 15 | 1013.7 |
| 20260507040044 | 77 | 0 | 0.0 | 0.0 | 0.00 | 0.00 | 0.00 | 16 | 1013.7 |
| 20260507035529 | 77 | 0 | 0.0 | 0.0 | 0.00 | 0.00 | 0.00 | 16 | 1013.7 |
| 20260507035029 | 78 | 0 | 0.0 | 0.0 | 0.00 | 0.00 | 0.00 | 15 | 1013.6 |
| 20260507034543 | 78 | 0 | 0.0 | 0.0 | 0.00 | 0.00 | 0.00 | 15 | 1013.5 |
| 20260507034049 | 78 | 0 | 0.0 | 0.0 | 0.00 | 0.00 | 0.00 | 16 | 1013.6 |
| 20260507033533 | 78 | 0 | 0.0 | 0.0 | 0.00 | 0.00 | 0.00 | 16 | 1013.5 |
| 20260507033048 | 79 | 0 | 0.0 | 0.0 | 0.00 | 0.00 | 0.00 | 15 | 1013.4 |
| 20260507032532 | 79 | 0 | 0.0 | 0.0 | 0.00 | 0.00 | 0.00 | 15 | 1013.3 |
| 20260507032029 | 79 | 0 | 0.0 | 0.0 | 0.00 | 0.00 | 0.00 | 14 | 1013.1 |
| 20260507031545 | 79 | 0 | 0.0 | 0.0 | 0.00 | 0.00 | 0.00 | 14 | 1013.1 |
| 20260507031029 | 80 | 0 | 0.0 | 0.0 | 0.00 | 0.00 | 0.00 | 14 | 1013.0 |
| 20260507030530 | 80 | 0 | 0.0 | 0.0 | 0.00 | 0.00 | 0.00 | 14 | 1013.0 |
| 20260507030044 | 80 | 0 | 0.0 | 0.0 | 0.00 | 0.00 | 0.00 | 14 | 1012.9 |
| 20260507025529 | 80 | 0 | 0.0 | 0.0 | 0.00 | 0.00 | 0.00 | 13 | 1012.9 |
| 20260507025032 | 81 | 0 | 0.0 | 0.0 | 0.00 | 0.00 | 0.00 | 13 | 1012.8 |
| 20260507024548 | 81 | 0 | 0.0 | 0.0 | 0.00 | 0.00 | 0.00 | 13 | 1012.7 |
| 20260507024032 | 81 | 0 | 0.0 | 0.0 | 0.00 | 0.00 | 0.00 | 13 | 1012.7 |
| 20260507023530 | 81 | 0 | 0.0 | 0.0 | 0.00 | 0.00 | 0.00 | 13 | 1012.6 |
| 20260507023042 | 82 | 0 | 0.0 | 0.0 | 0.00 | 0.00 | 0.00 | 13 | 1012.5 |
| 20260507022530 | 82 | 0 | 0.0 | 0.0 | 0.00 | 0.00 | 0.00 | 13 | 1012.6 |
| 20260507022032 | 82 | 0 | 0.0 | 0.0 | 0.00 | 0.00 | 0.00 | 13 | 1012.6 |
| 20260507021544 | 82 | 0 | 0.0 | 0.0 | 0.00 | 0.00 | 0.00 | 13 | 1012.5 |
| 20260507021034 | 83 | 0 | 0.0 | 0.0 | 0.00 | 0.00 | 0.00 | 13 | 1012.5 |
| 20260507020532 | 83 | 0 | 0.0 | 0.0 | 0.00 | 0.00 | 0.00 | 13 | 1012.4 |
| 20260507020045 | 83 | 0 | 0.0 | 0.0 | 0.00 | 0.00 | 0.00 | 13 | 1012.3 |
| 20260507015529 | 83 | 0 | 0.0 | 0.0 | 0.00 | 0.00 | 0.00 | 13 | 1012.4 |
| 20260507015031 | 83 | 0 | 0.0 | 0.0 | 0.00 | 0.00 | 0.00 | 13 | 1012.4 |
| 20260507014549 | 83 | 0 | 0.0 | 0.0 | 0.00 | 0.00 | 0.00 | 13 | 1012.4 |
| 20260507014033 | 84 | 0 | 0.0 | 0.0 | 0.00 | 0.00 | 0.00 | 13 | 1012.4 |
| 20260507013532 | 84 | 0 | 0.0 | 0.0 | 0.00 | 0.00 | 0.00 | 13 | 1012.4 |
| 20260507013051 | 84 | 0 | 0.0 | 0.0 | 0.00 | 0.00 | 0.00 | 13 | 1012.4 |
| 20260507012531 | 84 | 0 | 0.0 | 0.0 | 0.00 | 0.00 | 0.00 | 12 | 1012.4 |
| 20260507012031 | 84 | 0 | 0.0 | 0.0 | 0.00 | 0.00 | 0.00 | 13 | 1012.4 |
| 20260507011549 | 84 | 0 | 0.0 | 0.0 | 0.00 | 0.00 | 0.00 | 13 | 1012.4 |
| 20260507011033 | 85 | 0 | 0.0 | 0.0 | 0.00 | 0.00 | 0.00 | 13 | 1012.4 |
| 20260507010532 | 85 | 0 | 0.0 | 0.0 | 0.00 | 0.00 | 0.00 | 12 | 1012.4 |
| 20260507010055 | 85 | 0 | 0.0 | 0.0 | 0.00 | 0.00 | 0.00 | 12 | 1012.4 |
| 20260507005532 | 85 | 0 | 0.0 | 0.0 | 0.00 | 0.00 | 0.00 | 13 | 1012.4 |
| 20260507005031 | 85 | 0 | 0.0 | 0.0 | 0.00 | 0.00 | 0.00 | 13 | 1012.4 |
| 20260507004554 | 85 | 0 | 0.0 | 0.0 | 0.00 | 0.00 | 0.00 | 12 | 1012.5 |